When you browse on this site, cookies collect data to enhance your experience and personalize the content and advertising you see.
Visit our Privacy Policy to learn more. By continuing to use the site, you agree to this use of cookies and data.
  • In United Kingdom
  • List of Countries
  • For 7 days
  • Water Temperature
  • Satellite Maps
  • Weather Map
  • Weather Widgets
  • user-avatar
    Login

    Hourly Weather Szombathely

    Today, 24 April, Wednesday

    Time Temperature Precipitation Wind Pressure Humidity
    00:00 +9°C° 0 mm 2 mps 740 mmHg 93%
    01:00 +8°C° 0 mm 2 mps 740 mmHg 95%
    02:00 +9°C° 0 mm 3 mps 740 mmHg 95%
    03:00 +9°C° 0 mm 3 mps 740 mmHg 95%
    04:00 +9°C° 0 mm 3 mps 740 mmHg 94%
    05:00 +10°C° 0 mm 4 mps 740 mmHg 93%
    06:00 +10°C° 0 mm 5 mps 740 mmHg 91%
    07:00 +12°C° 0 mm 5 mps 741 mmHg 88%
    08:00 +14°C° 0 mm 5 mps 741 mmHg 81%
    09:00 +16°C° 0 mm 6 mps 741 mmHg 74%
    10:00 +19°C° 0 mm 6 mps 741 mmHg 67%
    11:00 +20°C° 0 mm 7 mps 741 mmHg 62%
    12:00 +22°C° 0 mm 7 mps 741 mmHg 57%
    13:00 +23°C° 0 mm 7 mps 740 mmHg 51%
    14:00 +23°C° 0 mm 7 mps 740 mmHg 53%
    15:00 +23°C° 0 mm 7 mps 740 mmHg 54%
    16:00 +22°C° 0 mm 8 mps 740 mmHg 56%
    17:00 +21°C° 0 mm 7 mps 740 mmHg 60%
    18:00 +19°C° 0 mm 6 mps 740 mmHg 64%
    19:00 +17°C° 0 mm 6 mps 740 mmHg 69%
    20:00 +16°C° 0 mm 6 mps 740 mmHg 68%
    21:00 +16°C° 0 mm 6 mps 740 mmHg 67%
    22:00 +15°C° 0 mm 7 mps 741 mmHg 66%
    23:00 +15°C° 0 mm 7 mps 741 mmHg 67%

    Tomorrow, 25 April, Thursday

    Time Temperature Precipitation Wind Pressure Humidity
    00:00 +15°C° 0 mm 7 mps 741 mmHg 67%
    01:00 +15°C° 0 mm 8 mps 741 mmHg 67%
    02:00 +14°C° 0 mm 7 mps 741 mmHg 70%
    03:00 +14°C° 0 mm 7 mps 742 mmHg 73%
    04:00 +14°C° 0 mm 6 mps 742 mmHg 75%
    05:00 +14°C° 0 mm 6 mps 742 mmHg 75%
    06:00 +14°C° 0 mm 6 mps 742 mmHg 75%
    07:00 +15°C° 0 mm 5 mps 743 mmHg 74%
    08:00 +17°C° 0 mm 6 mps 743 mmHg 68%
    09:00 +19°C° 0 mm 6 mps 743 mmHg 62%
    10:00 +21°C° 0 mm 6 mps 743 mmHg 56%
    11:00 +22°C° 0 mm 7 mps 743 mmHg 52%
    12:00 +23°C° 0 mm 7 mps 742 mmHg 48%
    13:00 +24°C° 0 mm 8 mps 742 mmHg 44%
    14:00 +24°C° 0 mm 8 mps 742 mmHg 44%
    15:00 +24°C° 0 mm 8 mps 741 mmHg 45%
    16:00 +24°C° 0 mm 8 mps 741 mmHg 45%
    17:00 +22°C° 0 mm 8 mps 741 mmHg 48%
    18:00 +21°C° 0 mm 8 mps 741 mmHg 51%
    19:00 +20°C° 0 mm 8 mps 741 mmHg 53%
    20:00 +18°C° 0 mm 8 mps 741 mmHg 53%
    21:00 +18°C° 0 mm 8 mps 741 mmHg 53%
    22:00 +17°C° 0 mm 8 mps 741 mmHg 53%
    23:00 +17°C° 0 mm 8 mps 741 mmHg 55%

    Day after tomorrow, 26 April, Friday

    Time Temperature Precipitation Wind Pressure Humidity
    00:00 +16°C° 0 mm 7 mps 741 mmHg 57%
    01:00 +16°C° 0 mm 7 mps 741 mmHg 60%
    02:00 +16°C° 0 mm 7 mps 740 mmHg 60%
    03:00 +15°C° 0 mm 7 mps 740 mmHg 61%
    04:00 +15°C° 0 mm 6 mps 740 mmHg 62%
    05:00 +16°C° 0 mm 7 mps 740 mmHg 62%
    06:00 +16°C° 0 mm 7 mps 740 mmHg 62%
    07:00 +17°C° 0 mm 7 mps 740 mmHg 62%
    08:00 +20°C° 0 mm 7 mps 740 mmHg 57%
    09:00 +21°C° 0 mm 8 mps 740 mmHg 52%
    10:00 +23°C° 0 mm 9 mps 740 mmHg 46%
    11:00 +24°C° 0 mm 8 mps 740 mmHg 45%
    12:00 +24°C° 0 mm 8 mps 739 mmHg 43%
    13:00 +26°C° 0 mm 8 mps 739 mmHg 41%
    14:00 +26°C° 0 mm 8 mps 739 mmHg 42%
    15:00 +26°C° 0 mm 7 mps 739 mmHg 42%
    16:00 +26°C° 0 mm 7 mps 738 mmHg 42%
    17:00 +23°C° 0 mm 6 mps 739 mmHg 46%
    18:00 +21°C° 0 mm 6 mps 739 mmHg 50%
    19:00 +19°C° 0 mm 6 mps 739 mmHg 54%
    20:00 +17°C° 0 mm 5 mps 740 mmHg 58%
    21:00 +17°C° 0 mm 3 mps 740 mmHg 63%
    22:00 +16°C° 0 mm 2 mps 741 mmHg 68%
    23:00 +14°C° 0.4 mm 3 mps 741 mmHg 70%

    27 April, Saturday

    Time Temperature Precipitation Wind Pressure Humidity
    00:00 +13°C° 0.4 mm 3 mps 741 mmHg 73%
    01:00 +11°C° 0.4 mm 4 mps 741 mmHg 75%
    02:00 +11°C° 0.2 mm 4 mps 742 mmHg 75%
    03:00 +11°C° 0.2 mm 3 mps 742 mmHg 76%
    04:00 +11°C° 0.2 mm 3 mps 742 mmHg 76%
    05:00 +11°C° 0.2 mm 3 mps 742 mmHg 77%
    06:00 +11°C° 0.2 mm 3 mps 742 mmHg 77%
    07:00 +11°C° 0.2 mm 3 mps 742 mmHg 78%
    08:00 +11°C° 0.1 mm 3 mps 742 mmHg 77%
    09:00 +12°C° 0.1 mm 2 mps 742 mmHg 77%
    10:00 +13°C° 0.1 mm 2 mps 742 mmHg 76%
    11:00 +14°C° 0 mm 2 mps 742 mmHg 68%
    12:00 +16°C° 0 mm 2 mps 742 mmHg 59%
    13:00 +17°C° 0 mm 2 mps 741 mmHg 51%
    14:00 +17°C° 0.2 mm 2 mps 741 mmHg 51%
    15:00 +18°C° 0.2 mm 2 mps 741 mmHg 51%
    16:00 +19°C° 0.2 mm 1 mps 740 mmHg 51%
    17:00 +16°C° 0.6 mm 2 mps 740 mmHg 60%
    18:00 +14°C° 0.6 mm 2 mps 741 mmHg 70%
    19:00 +13°C° 0.6 mm 2 mps 741 mmHg 79%
    20:00 +12°C° 0.1 mm 2 mps 741 mmHg 81%
    21:00 +12°C° 0.1 mm 2 mps 741 mmHg 82%
    22:00 +10°C° 0.1 mm 2 mps 742 mmHg 84%
    23:00 +9°C° 0 mm 2 mps 742 mmHg 84%

    28 April, Sunday

    Time Temperature Precipitation Wind Pressure Humidity
    00:00 +9°C° 0 mm 2 mps 742 mmHg 84%
    01:00 +8°C° 0 mm 2 mps 741 mmHg 84%
    02:00 +8°C° 0 mm 2 mps 742 mmHg 84%
    03:00 +8°C° 0 mm 2 mps 742 mmHg 84%
    04:00 +7°C° 0 mm 2 mps 742 mmHg 84%
    05:00 +8°C° 0 mm 3 mps 742 mmHg 80%
    06:00 +10°C° 0 mm 4 mps 742 mmHg 75%
    07:00 +10°C° 0 mm 5 mps 742 mmHg 70%
    08:00 +12°C° 0 mm 5 mps 742 mmHg 63%
    09:00 +14°C° 0 mm 6 mps 742 mmHg 55%
    10:00 +15°C° 0 mm 6 mps 742 mmHg 48%
    11:00 +16°C° 0 mm 6 mps 742 mmHg 47%
    12:00 +16°C° 0 mm 6 mps 742 mmHg 46%
    13:00 +17°C° 0 mm 7 mps 741 mmHg 45%
    14:00 +17°C° 0 mm 7 mps 741 mmHg 47%
    15:00 +17°C° 0 mm 7 mps 741 mmHg 48%
    16:00 +17°C° 0 mm 7 mps 741 mmHg 49%
    17:00 +16°C° 0 mm 6 mps 741 mmHg 54%
    18:00 +14°C° 0 mm 5 mps 741 mmHg 58%
    19:00 +13°C° 0 mm 5 mps 741 mmHg 63%
    20:00 +13°C° 0 mm 5 mps 742 mmHg 64%
    21:00 +12°C° 0 mm 5 mps 742 mmHg 66%
    22:00 +12°C° 0 mm 5 mps 742 mmHg 67%
    23:00 +10°C° 0 mm 6 mps 742 mmHg 67%

    29 April, Monday

    Time Temperature Precipitation Wind Pressure Humidity
    00:00 +10°C° 0 mm 6 mps 742 mmHg 68%
    01:00 +10°C° 0 mm 6 mps 742 mmHg 68%
    02:00 +10°C° 0 mm 5 mps 742 mmHg 69%
    03:00 +9°C° 0 mm 5 mps 742 mmHg 70%
    04:00 +9°C° 0 mm 5 mps 742 mmHg 70%
    05:00 +10°C° 0 mm 6 mps 742 mmHg 68%
    06:00 +10°C° 0 mm 7 mps 742 mmHg 67%
    07:00 +11°C° 0 mm 8 mps 742 mmHg 65%
    08:00 +12°C° 0 mm 8 mps 742 mmHg 62%
    09:00 +13°C° 0 mm 8 mps 742 mmHg 59%
    10:00 +15°C° 0 mm 9 mps 742 mmHg 56%
    11:00 +15°C° 0 mm 9 mps 742 mmHg 55%
    12:00 +16°C° 0 mm 8 mps 741 mmHg 53%
    13:00 +16°C° 0 mm 8 mps 741 mmHg 51%
    14:00 +16°C° 0 mm 8 mps 741 mmHg 52%
    15:00 +16°C° 0 mm 8 mps 741 mmHg 53%
    16:00 +15°C° 0 mm 8 mps 740 mmHg 55%
    17:00 +14°C° 0 mm 7 mps 740 mmHg 61%
    18:00 +12°C° 0 mm 5 mps 740 mmHg 66%
    19:00 +11°C° 0 mm 4 mps 740 mmHg 72%
    20:00 +10°C° 0 mm 4 mps 741 mmHg 76%
    21:00 +9°C° 0 mm 3 mps 741 mmHg 80%
    22:00 +8°C° 0 mm 2 mps 741 mmHg 84%
    23:00 +8°C° 0 mm 2 mps 741 mmHg 84%
    Show more